[[{"header":{"parameterUnit":"m.s-1","parameterCategory":2,"la1":30.2991,"la2":30.254,"lo1":-89.0895,"lo2":-89.0444,"dy":0.0017,"dx":0.0017,"nx":28,"ny":28,"refTime":"2024-02-08T09:00:00:Z","depth":"0","parameterNumber":2,"parameterNumberName":"U-component_of_CURRENTS"},"data":[0,0,0,0,0,0,0,0,0,0,0,0,0,0,0,0,0,0,0,0,0,0,0,0,0,0,0,0,0,0,0,0,0,0,0,0,0,0,0,0,0,0,0,0,0,0,0,0,0,0,0,0,0,0,0,0,0,0,-0.3208,-0.3208,0,-0.3276,-0.3276,-0.3277,-0.325,-0.3249,-0.3248,-0.3246,-0.3234,-0.3235,-0.3236,0,0,0,0,0,0,0,0,0,0,0,0,0,-0.3077,-0.3079,-0.3207,-0.3209,-0.321,-0.3276,-0.3276,-0.3277,-0.325,-0.3249,-0.3247,-0.3246,-0.3234,-0.3235,-0.3236,0,0,0,0,0,0,0,0,0,0,0,0,0,-0.3136,-0.308,-0.3207,-0.3206,-0.3207,-0.3275,-0.3276,-0.3277,-0.3251,-0.3249,-0.3247,-0.3245,-0.3234,-0.3235,-0.3236,-0.3284,0,0,-0.324,-0.3241,0,0,0,0,0,0,0,0,-0.3132,-0.314,-0.3205,-0.3207,-0.3208,-0.3255,-0.3226,-0.3277,-0.3251,-0.3231,-0.3246,-0.3244,-0.3237,-0.3238,-0.3252,-0.3284,-0.3283,-0.3241,-0.3241,-0.3242,-0.3242,0,0,0,0,0,0,0,-0.3128,-0.3137,-0.3232,-0.3207,-0.3208,-0.3211,-0.3216,-0.3236,-0.3241,-0.3233,-0.3232,-0.3245,-0.3236,-0.3251,-0.3252,-0.3283,-0.3241,-0.3242,-0.3243,-0.3243,-0.33,-0.33,0,0,0,0,0,0,-0.3127,-0.3134,-0.3229,-0.3234,-0.3168,-0.3215,-0.3221,-0.3239,-0.3242,-0.3242,-0.3246,-0.3243,-0.325,-0.325,-0.3251,-0.3276,-0.3242,-0.3243,-0.3244,-0.3299,-0.33,-0.3301,0,0,0,0,0,0,-0.3124,-0.3136,-0.3227,-0.3187,-0.3199,-0.3219,-0.324,-0.3242,-0.3251,-0.3254,-0.3251,-0.3252,-0.3248,-0.3249,-0.3262,-0.3276,-0.3244,-0.3245,-0.3298,-0.3299,-0.33,-0.3346,0,0,0,0,0,0,-0.312,-0.3134,-0.3143,-0.3187,-0.3201,-0.3271,-0.3243,-0.3245,-0.3263,-0.326,-0.3259,-0.3256,-0.3247,-0.326,-0.3263,-0.3277,-0.3246,-0.3297,-0.3299,-0.33,-0.3344,-0.3349,-0.3353,0,0,0,0,0,-0.3116,-0.3142,-0.3143,-0.3155,-0.3215,-0.3273,-0.3281,-0.3286,-0.3266,-0.3283,-0.3271,-0.3256,-0.3269,-0.3262,-0.3266,-0.3281,-0.3297,-0.3298,-0.33,-0.3342,-0.3348,-0.3353,0,0,0,0,0,0,-0.3087,-0.3143,-0.3145,-0.3185,-0.3227,-0.3269,-0.3286,-0.3292,-0.33,-0.3287,-0.3275,-0.3273,-0.3292,-0.3281,-0.3273,-0.3299,-0.3278,-0.328,-0.3308,-0.3314,-0.3318,-0.3294,-0.3247,0,0,0,0,0,-0.3089,-0.312,-0.3173,-0.3203,-0.3225,-0.3255,-0.3276,-0.3287,-0.3305,-0.3306,-0.3305,-0.3299,-0.3306,-0.3303,-0.3314,-0.3334,-0.329,-0.3341,-0.3346,-0.335,-0.3332,-0.3289,-0.3288,-0.3306,-0.3306,-0.3306,0,0,-0.3084,-0.312,-0.3136,-0.3199,-0.3227,-0.327,-0.3262,-0.3304,-0.3326,-0.3305,-0.3324,-0.3325,-0.3318,-0.3338,-0.3343,-0.3325,-0.3323,-0.3352,-0.3355,-0.3335,-0.329,-0.3288,-0.3287,-0.3307,-0.3307,-0.3306,0,0,-0.3101,-0.3127,-0.316,-0.3202,-0.3257,-0.3282,-0.3295,-0.3342,-0.3345,-0.3379,-0.336,-0.3358,-0.3384,-0.3368,-0.3365,-0.34,-0.3357,-0.3413,-0.3408,-0.3368,-0.3365,-0.3363,-0.3305,-0.3297,-0.3404,-0.3404,-0.3404,0,-0.309,-0.314,-0.3178,-0.3227,-0.3256,-0.3286,-0.3325,-0.3351,-0.3391,-0.3389,-0.3386,-0.3397,-0.3392,-0.3392,-0.3398,-0.3409,-0.3373,-0.3391,-0.3372,-0.3368,-0.3365,-0.3306,-0.3296,-0.3407,-0.3407,-0.3406,-0.3406,0,-0.3135,-0.3176,-0.3202,-0.3266,-0.3305,-0.3347,-0.3391,-0.3413,-0.3419,-0.3433,-0.3443,-0.3438,-0.343,-0.3439,-0.3428,-0.3409,-0.3388,-0.3392,-0.3355,-0.3365,-0.3303,-0.3292,-0.341,-0.3409,-0.3409,-0.3408,0,0,-0.3101,-0.321,-0.3215,-0.3243,-0.3325,-0.3357,-0.34,-0.3436,-0.3438,-0.347,-0.3458,-0.3475,-0.3459,-0.3452,-0.3442,-0.3403,-0.335,-0.3384,-0.3381,-0.332,-0.3245,-0.3159,-0.3139,-0.3354,-0.3353,-0.3351,-0.3211,0,-0.3114,-0.3197,-0.3249,-0.3308,-0.3349,-0.3392,-0.3424,-0.3457,-0.3474,-0.3473,-0.3462,-0.3458,-0.3471,-0.3455,-0.3427,-0.3372,-0.3323,-0.3386,-0.3248,-0.3243,-0.3161,-0.3124,-0.3015,-0.2875,-0.32,-0.3198,-0.3197,0,-0.3131,-0.3182,-0.3245,-0.3315,-0.3333,-0.3367,-0.3398,-0.3432,-0.345,-0.3458,-0.3459,-0.3454,-0.3415,-0.3415,-0.3325,-0.3367,-0.3302,-0.3256,-0.3249,-0.3139,-0.3136,-0.2918,-0.2842,-0.2815,-0.3179,-0.318,-0.3182,0,-0.307,-0.317,-0.3208,-0.324,-0.3329,-0.3341,-0.3373,-0.3413,-0.3424,-0.3431,-0.3426,-0.3411,-0.338,-0.3319,-0.3249,-0.3277,-0.3126,-0.3152,-0.3012,-0.3005,-0.2865,-0.2848,-0.2735,-0.3061,-0.3061,-0.3061,-0.3062,0,-0.3058,-0.3083,-0.3179,-0.3197,-0.3215,-0.3295,-0.3303,-0.3335,-0.3367,-0.3354,-0.3398,-0.3369,-0.3353,-0.3285,-0.3221,-0.3072,-0.3104,-0.2981,-0.2954,-0.2879,-0.2865,-0.2798,-0.2829,-0.3056,-0.3057,-0.3058,-0.3059,0,-0.2977,-0.3054,-0.3089,-0.317,-0.3188,-0.319,-0.3255,-0.3254,-0.331,-0.3288,-0.3284,-0.3315,-0.3224,-0.3187,-0.3068,-0.3016,-0.2827,-0.2831,-0.2737,-0.27,-0.2542,-0.2581,-0.2413,-0.2348,-0.2637,-0.2634,-0.2631,0,-0.2942,-0.2956,-0.303,-0.3032,-0.306,-0.3091,-0.31,-0.3192,-0.3199,-0.3234,-0.3199,-0.3156,-0.3084,-0.2911,-0.2801,-0.2651,-0.2674,-0.2482,-0.251,-0.2484,-0.2508,-0.2545,-0.2507,-0.2344,-0.2339,-0.2335,-0.2332,0,-0.2837,-0.2862,-0.2882,-0.29,-0.2912,-0.2932,-0.2962,-0.2975,-0.3056,-0.3047,-0.3004,-0.2953,-0.2825,-0.2639,-0.2495,-0.2403,-0.242,-0.2395,-0.2388,-0.2268,-0.2278,-0.2219,-0.2493,-0.2297,-0.2301,-0.2303,-0.2305,-0.2307,-0.2721,-0.2708,-0.2732,-0.273,-0.2749,-0.2742,-0.2697,-0.2748,-0.2734,-0.2679,-0.2745,-0.2617,-0.2529,-0.2303,-0.2211,-0.2041,-0.2129,-0.1991,-0.2036,-0.2074,-0.2014,-0.2201,-0.1974,-0.1976,-0.1977,-0.1978,-0.1979,0,-0.2567,-0.2564,-0.2557,-0.2549,-0.2497,-0.2566,-0.2563,-0.2486,-0.2405,-0.241,-0.2334,-0.2223,-0.2051,-0.1988,-0.1825,-0.1725,-0.1706,-0.1697,-0.1736,-0.1712,-0.1868,-0.1859,-0.1573,-0.1573,-0.1573,-0.1573,-0.1573,-0.1573,-0.2479,-0.2417,-0.2421,-0.2288,-0.2272,-0.2141,-0.2098,-0.202,-0.1988,-0.185,-0.1798,-0.1809,-0.1775,-0.1828,-0.1673,-0.1588,-0.1566,-0.1505,-0.1548,-0.1694,-0.1726,-0.1757,-0.1755,-0.1451,-0.1451,-0.133,-0.1329,-0.1328]},{"header":{"parameterUnit":"m.s-1","parameterCategory":2,"la1":30.2991,"la2":30.254,"lo1":-89.0895,"lo2":-89.0444,"dy":0.0017,"dx":0.0017,"nx":28,"ny":28,"refTime":"2024-02-08T09:00:00:Z","depth":"0","parameterNumber":3,"parameterNumberName":"V-component_of_CURRENTS"},"data":[0,0,0,0,0,0,0,0,0,0,0,0,0,0,0,0,0,0,0,0,0,0,0,0,0,0,0,0,0,0,0,0,0,0,0,0,0,0,0,0,0,0,0,0,0,0,0,0,0,0,0,0,0,0,0,0,0,0,-0.0386,-0.0385,0,-0.0288,-0.0287,-0.0286,-0.0215,-0.0214,-0.0214,-0.0213,-0.005,-0.0046,-0.0042,0,0,0,0,0,0,0,0,0,0,0,0,0,-0.0441,-0.044,-0.0386,-0.0385,-0.0384,-0.0288,-0.0287,-0.0285,-0.0215,-0.0214,-0.0214,-0.0213,-0.0052,-0.0047,-0.0042,0,0,0,0,0,0,0,0,0,0,0,0,0,-0.0386,-0.044,-0.0387,-0.0339,-0.0334,-0.0289,-0.0287,-0.0285,-0.0215,-0.0214,-0.0213,-0.0213,-0.0053,-0.0047,-0.0041,-0.0018,0,0,-0.0023,-0.0021,0,0,0,0,0,0,0,0,-0.0389,-0.0384,-0.0347,-0.0342,-0.0336,-0.0264,-0.0246,-0.0193,-0.0215,-0.0258,-0.0213,-0.0213,-0.0117,-0.0106,-0.0088,-0.001,-0.0003,-0.0023,-0.0019,-0.0017,-0.0015,0,0,0,0,0,0,0,-0.0393,-0.0387,-0.0346,-0.0346,-0.0339,-0.0297,-0.0289,-0.0235,-0.019,-0.0254,-0.0249,-0.0241,-0.0114,-0.0094,-0.0083,-0.0001,-0.0023,-0.0018,-0.0014,-0.0012,0.0126,0.0126,0,0,0,0,0,0,-0.0413,-0.0391,-0.0349,-0.0343,-0.0363,-0.0298,-0.0288,-0.0287,-0.0192,-0.0178,-0.0242,-0.0238,-0.0104,-0.009,-0.0077,-0.0023,-0.0017,-0.0011,-0.0008,0.0126,0.0126,0.0126,0,0,0,0,0,0,-0.0415,-0.0411,-0.0353,-0.0366,-0.0356,-0.0298,-0.0296,-0.0285,-0.0265,-0.0184,-0.0168,-0.0234,-0.0103,-0.0085,-0.003,-0.0017,-0.0009,-0.0003,0.0125,0.0126,0.0126,0.0071,0,0,0,0,0,0,-0.0417,-0.0412,-0.0419,-0.0367,-0.0356,-0.0334,-0.0297,-0.0284,-0.0262,-0.0256,-0.0171,-0.0155,-0.0101,-0.0039,-0.0024,-0.0009,0.0001,0.0125,0.0126,0.0126,0.0073,0.007,0.0067,0,0,0,0,0,-0.0419,-0.0438,-0.042,-0.0415,-0.0367,-0.0335,-0.0325,-0.028,-0.0263,-0.0259,-0.0199,-0.0158,-0.0027,-0.0034,-0.0017,0.0001,0.0125,0.0125,0.0126,0.0074,0.007,0.0067,0,0,0,0,0,0,-0.0465,-0.0431,-0.041,-0.0417,-0.0381,-0.0324,-0.0319,-0.0288,-0.0239,-0.0233,-0.0155,-0.0135,-0.0083,-0.0038,-0.0049,0.0039,0.0056,0.0059,0.0011,0.0007,0.0004,-0.0016,0.0006,0,0,0,0,0,-0.0479,-0.0483,-0.0438,-0.0441,-0.043,-0.0376,-0.0358,-0.0328,-0.0278,-0.0256,-0.0195,-0.013,-0.0068,-0.0031,0.0024,0.0073,0.012,0.0095,0.0091,0.0089,0.0083,0.0167,0.0171,0.0127,0.0127,0.0127,0,0,-0.0499,-0.0479,-0.0481,-0.0451,-0.042,-0.0407,-0.0363,-0.0345,-0.0323,-0.0246,-0.0201,-0.0142,-0.0061,-0.0005,0.0023,0.0036,0.0124,0.0089,0.0086,0.0082,0.0168,0.0172,0.0176,0.0127,0.0127,0.0127,0,0,-0.0541,-0.0521,-0.0539,-0.0512,-0.0476,-0.0438,-0.0438,-0.0384,-0.035,-0.0305,-0.024,-0.0174,-0.0091,-0.0019,0.0027,0.0039,0.0098,0.0051,0.0031,0.0111,0.0116,0.012,0.0175,0.0185,0.0057,0.0057,0.0057,0,-0.0564,-0.0577,-0.0538,-0.054,-0.0522,-0.0458,-0.0463,-0.0418,-0.0349,-0.0316,-0.0301,-0.0159,-0.0092,-0.0001,0.0002,0.0035,0.0074,0.0038,0.0107,0.0113,0.0119,0.0174,0.0185,0.0054,0.0054,0.0055,0.0055,0,-0.061,-0.0618,-0.0625,-0.0604,-0.0577,-0.0573,-0.0507,-0.0474,-0.0428,-0.0372,-0.0288,-0.0194,-0.0106,-0.0072,-0.0029,0.0047,0.0059,0.0088,0.0115,0.012,0.0177,0.019,0.005,0.0051,0.0052,0.0053,0,0,-0.0672,-0.0663,-0.0667,-0.067,-0.0612,-0.06,-0.0556,-0.0496,-0.0463,-0.0384,-0.0328,-0.0214,-0.016,-0.0106,-0.0033,0.0038,0.0113,0.0068,0.0074,0.0117,0.0269,0.0303,0.032,0.015,0.0152,0.0154,0.029,0,-0.0721,-0.0757,-0.0725,-0.074,-0.0748,-0.0671,-0.0632,-0.0561,-0.049,-0.0418,-0.0299,-0.0223,-0.0171,-0.0128,-0.0047,0.0075,0.0145,0.0071,0.0262,0.0268,0.0294,0.0337,0.0362,0.0488,0.0303,0.0305,0.0307,0,-0.0777,-0.0792,-0.0828,-0.0808,-0.0802,-0.0789,-0.0715,-0.0672,-0.0543,-0.0487,-0.0383,-0.0287,-0.0156,-0.0124,0.0087,0.0033,0.0138,0.0228,0.0236,0.0295,0.0326,0.0457,0.0519,0.0649,0.0328,0.0326,0.0324,0,-0.0848,-0.0864,-0.0898,-0.089,-0.085,-0.0839,-0.0804,-0.0694,-0.065,-0.0525,-0.0481,-0.0314,-0.0222,-0.007,0.012,0.0105,0.0342,0.0354,0.0483,0.0485,0.056,0.0565,0.0769,0.0495,0.0495,0.0494,0.0494,0,-0.0915,-0.0942,-0.094,-0.0957,-0.0978,-0.0912,-0.0897,-0.0835,-0.0729,-0.0666,-0.0527,-0.0436,-0.0205,-0.0035,0.0116,0.0346,0.035,0.0489,0.0534,0.0539,0.0542,0.07,0.0746,0.0499,0.0498,0.0497,0.0496,0,-0.099,-0.099,-0.1032,-0.1021,-0.1018,-0.103,-0.0979,-0.0954,-0.0852,-0.0766,-0.0727,-0.0508,-0.0276,-0.0051,0.0225,0.0351,0.0651,0.0631,0.0608,0.0649,0.0873,0.0914,0.1151,0.1245,0.0795,0.0796,0.0798,0,-0.1033,-0.1064,-0.1097,-0.1124,-0.1127,-0.113,-0.112,-0.1029,-0.0987,-0.0799,-0.0756,-0.0512,-0.031,0.0091,0.0369,0.0654,0.0755,0.0821,0.0805,0.0904,0.0984,0.1002,0.1065,0.088,0.0883,0.0884,0.0886,0,-0.1104,-0.1118,-0.1153,-0.1218,-0.124,-0.1255,-0.1228,-0.1207,-0.1068,-0.0965,-0.0761,-0.058,-0.0173,0.0202,0.0559,0.0717,0.092,0.0863,0.0996,0.1096,0.1103,0.1207,0.0747,0.0901,0.0899,0.0898,0.0897,0.0897,-0.1149,-0.1201,-0.1249,-0.1305,-0.1336,-0.1349,-0.1336,-0.1262,-0.1166,-0.0947,-0.0772,-0.0451,0.0053,0.0584,0.0767,0.112,0.108,0.1209,0.1257,0.1271,0.1349,0.0902,0.1085,0.1085,0.1085,0.1084,0.1084,0,-0.1201,-0.1257,-0.1324,-0.1385,-0.1425,-0.1417,-0.1378,-0.1309,-0.1169,-0.0924,-0.0679,-0.0082,0.0396,0.0828,0.1333,0.1507,0.1544,0.1577,0.1619,0.1672,0.1316,0.1306,0.1509,0.1509,0.1509,0.1509,0.1509,0.1508,-0.123,-0.1315,-0.1354,-0.1436,-0.147,-0.1467,-0.1432,-0.1288,-0.1094,-0.0674,-0.0299,0.0011,0.0606,0.1396,0.1836,0.1861,0.202,0.1981,0.2082,0.183,0.1799,0.1769,0.1773,0.2071,0.2071,0.2422,0.2426,0.2428]}],[{"header":{"parameterUnit":"m.s-1","parameterCategory":2,"la1":30.2991,"la2":30.254,"lo1":-89.0895,"lo2":-89.0444,"dy":0.0017,"dx":0.0017,"nx":28,"ny":28,"refTime":"2024-02-08T09:00:00:Z","depth":"2","parameterNumber":2,"parameterNumberName":"U-component_of_CURRENTS"},"data":[0,0,0,0,0,0,0,0,0,0,0,0,0,0,0,0,0,0,0,0,0,0,0,0,0,0,0,0,0,0,0,0,0,0,0,0,0,0,0,0,0,0,0,0,0,0,0,0,0,0,0,0,0,0,0,0,0,0,-0.2669,-0.2669,0,-0.2719,-0.272,-0.272,-0.2709,-0.2708,-0.2707,-0.2706,-0.271,-0.2711,-0.2712,0,0,0,0,0,0,0,0,0,0,0,0,0,-0.2578,-0.258,-0.2668,-0.2669,-0.267,-0.2719,-0.272,-0.272,-0.2709,-0.2708,-0.2707,-0.2706,-0.271,-0.2711,-0.2712,0,0,0,0,0,0,0,0,0,0,0,0,0,-0.262,-0.258,-0.2668,-0.2672,-0.2673,-0.2719,-0.272,-0.272,-0.2709,-0.2708,-0.2707,-0.2706,-0.271,-0.2711,-0.2712,-0.2742,0,0,-0.2716,-0.2716,0,0,0,0,0,0,0,0,-0.2618,-0.2623,-0.2671,-0.2672,-0.2673,-0.2709,-0.269,-0.2726,-0.2709,-0.2693,-0.2706,-0.2705,-0.2708,-0.2709,-0.2718,-0.2742,-0.2742,-0.2716,-0.2717,-0.2717,-0.2717,0,0,0,0,0,0,0,-0.2615,-0.2621,-0.2686,-0.2672,-0.2673,-0.2677,-0.2682,-0.2697,-0.2703,-0.2694,-0.2694,-0.2704,-0.2708,-0.2717,-0.2718,-0.2742,-0.2716,-0.2717,-0.2718,-0.2718,-0.2774,-0.2774,0,0,0,0,0,0,-0.2614,-0.2618,-0.2685,-0.2688,-0.2645,-0.268,-0.2685,-0.2696,-0.2704,-0.2705,-0.2705,-0.2703,-0.2716,-0.2717,-0.2718,-0.2754,-0.2717,-0.2718,-0.2719,-0.2773,-0.2774,-0.2775,0,0,0,0,0,0,-0.2612,-0.2619,-0.2683,-0.2656,-0.2664,-0.2683,-0.2696,-0.2698,-0.271,-0.2713,-0.2713,-0.2715,-0.2715,-0.2717,-0.2733,-0.2753,-0.2719,-0.272,-0.2772,-0.2773,-0.2774,-0.2824,0,0,0,0,0,0,-0.2609,-0.2618,-0.2627,-0.2656,-0.2666,-0.2717,-0.2698,-0.27,-0.2719,-0.2717,-0.2722,-0.2721,-0.2714,-0.2732,-0.2735,-0.2754,-0.2721,-0.2771,-0.2773,-0.2774,-0.2822,-0.2827,-0.2831,0,0,0,0,0,-0.2606,-0.2623,-0.2627,-0.2635,-0.2677,-0.2718,-0.2724,-0.2731,-0.2721,-0.2735,-0.2732,-0.2721,-0.2742,-0.2734,-0.2737,-0.2757,-0.277,-0.2772,-0.2774,-0.2819,-0.2826,-0.2831,0,0,0,0,0,0,-0.2585,-0.2625,-0.2629,-0.2657,-0.2688,-0.2717,-0.2731,-0.2738,-0.275,-0.2744,-0.2737,-0.2737,-0.2761,-0.2752,-0.2742,-0.2776,-0.2753,-0.2755,-0.2786,-0.2792,-0.2797,-0.2777,-0.2722,0,0,0,0,0,-0.2587,-0.2609,-0.2648,-0.2669,-0.2686,-0.271,-0.2727,-0.2737,-0.2753,-0.2757,-0.2762,-0.2763,-0.2772,-0.2775,-0.2785,-0.2807,-0.2771,-0.2819,-0.2824,-0.2828,-0.2813,-0.2787,-0.2788,-0.278,-0.278,-0.278,0,0,-0.2584,-0.2609,-0.262,-0.2666,-0.2687,-0.2722,-0.2717,-0.275,-0.2772,-0.2757,-0.2782,-0.2787,-0.2784,-0.2807,-0.2816,-0.28,-0.2812,-0.283,-0.2834,-0.2816,-0.2789,-0.279,-0.279,-0.2781,-0.2781,-0.2781,0,0,-0.2592,-0.2613,-0.2636,-0.2669,-0.2712,-0.2733,-0.2745,-0.2784,-0.2792,-0.2826,-0.2815,-0.2823,-0.2849,-0.2842,-0.2842,-0.2878,-0.2844,-0.2892,-0.2896,-0.2872,-0.2872,-0.2872,-0.2824,-0.2819,-0.2888,-0.2888,-0.2888,0,-0.2586,-0.2619,-0.2649,-0.2685,-0.271,-0.2739,-0.277,-0.2794,-0.2831,-0.2836,-0.2837,-0.286,-0.2859,-0.2868,-0.288,-0.2888,-0.2862,-0.2877,-0.2878,-0.2877,-0.2875,-0.2826,-0.282,-0.2891,-0.289,-0.289,-0.289,0,-0.2612,-0.2643,-0.2662,-0.2713,-0.2746,-0.278,-0.2821,-0.2847,-0.2862,-0.2878,-0.2899,-0.2901,-0.2904,-0.2915,-0.291,-0.2908,-0.2889,-0.2893,-0.2861,-0.2879,-0.2826,-0.2819,-0.2894,-0.2893,-0.2893,-0.2892,0,0,-0.2577,-0.2663,-0.2667,-0.2692,-0.2762,-0.2788,-0.2833,-0.2871,-0.2884,-0.2917,-0.2922,-0.2944,-0.2939,-0.2937,-0.2934,-0.2912,-0.2884,-0.29,-0.2898,-0.2848,-0.2814,-0.2726,-0.2709,-0.2895,-0.2894,-0.2894,-0.278,0,-0.2582,-0.2643,-0.2688,-0.2738,-0.2771,-0.2818,-0.2853,-0.2892,-0.2917,-0.2933,-0.2932,-0.2943,-0.2951,-0.295,-0.2935,-0.29,-0.2867,-0.2912,-0.2807,-0.2803,-0.2719,-0.2698,-0.2531,-0.2409,-0.2772,-0.2771,-0.277,0,-0.2585,-0.2624,-0.2676,-0.2744,-0.2761,-0.2797,-0.2843,-0.288,-0.2915,-0.2933,-0.2946,-0.2952,-0.2934,-0.2934,-0.2872,-0.2906,-0.2858,-0.2824,-0.2819,-0.2708,-0.27,-0.2451,-0.2381,-0.2757,-0.2758,-0.2759,-0.276,0,-0.2527,-0.2611,-0.2644,-0.2672,-0.2757,-0.2779,-0.2817,-0.287,-0.289,-0.2922,-0.2933,-0.2932,-0.2919,-0.2876,-0.2825,-0.2847,-0.2736,-0.2757,-0.2626,-0.2618,-0.2436,-0.2414,-0.2692,-0.2692,-0.2692,-0.2692,-0.2693,0,-0.2507,-0.2529,-0.262,-0.2635,-0.2663,-0.2741,-0.2769,-0.2809,-0.2856,-0.2859,-0.2919,-0.2906,-0.2906,-0.2858,-0.2807,-0.2681,-0.2721,-0.2601,-0.2578,-0.2449,-0.243,-0.2706,-0.2709,-0.2688,-0.2689,-0.269,-0.2691,0,-0.2428,-0.2497,-0.2531,-0.2615,-0.2637,-0.2651,-0.273,-0.2741,-0.2813,-0.2814,-0.2822,-0.287,-0.2806,-0.278,-0.2693,-0.2641,-0.254,-0.2485,-0.2323,-0.2282,-0.2439,-0.2447,-0.2314,-0.231,-0.2307,-0.2304,-0.2301,0,-0.2392,-0.2405,-0.2484,-0.2494,-0.2526,-0.2571,-0.259,-0.2688,-0.2704,-0.2771,-0.2747,-0.2735,-0.2677,-0.2539,-0.2439,-0.2309,-0.2412,-0.2095,-0.2104,-0.2407,-0.2398,-0.2411,-0.2423,-0.1879,-0.1874,-0.1869,-0.1865,0,-0.2294,-0.2326,-0.2346,-0.2376,-0.24,-0.2429,-0.2472,-0.2488,-0.2582,-0.2589,-0.2568,-0.2533,-0.2435,-0.2232,-0.2109,-0.2023,-0.2108,-0.1994,-0.2329,-0.2014,-0.1991,-0.1985,-0.2012,-0.1823,-0.1828,-0.1831,-0.1833,-0.1835,-0.2195,-0.2186,-0.2216,-0.2227,-0.2258,-0.226,-0.2225,-0.2278,-0.2273,-0.2238,-0.2312,-0.2186,-0.2164,-0.1868,-0.1748,-0.1663,-0.1808,-0.1736,-0.1753,-0.1774,-0.1757,-0.1731,-0.1509,-0.1511,-0.1513,-0.1515,-0.1516,0,-0.2057,-0.2059,-0.2063,-0.2067,-0.2031,-0.2103,-0.2108,-0.2037,-0.1963,-0.1969,-0.1906,-0.1678,-0.1547,-0.1528,-0.1327,-0.1284,-0.1297,-0.1237,-0.1263,-0.1304,-0.1341,-0.1306,-0.0935,-0.0934,-0.0932,-0.093,0,0,-0.1979,-0.1927,-0.1931,-0.1827,-0.1828,-0.1718,-0.1682,-0.1603,-0.1568,-0.1439,-0.1367,-0.1446,-0.1482,-0.1207,-0.1143,-0.1006,-0.1149,-0.0957,-0.1423,-0.1495,-0.153,-0.1626,-0.1617,0,0,0,0,0]},{"header":{"parameterUnit":"m.s-1","parameterCategory":2,"la1":30.2991,"la2":30.254,"lo1":-89.0895,"lo2":-89.0444,"dy":0.0017,"dx":0.0017,"nx":28,"ny":28,"refTime":"2024-02-08T09:00:00:Z","depth":"2","parameterNumber":3,"parameterNumberName":"V-component_of_CURRENTS"},"data":[0,0,0,0,0,0,0,0,0,0,0,0,0,0,0,0,0,0,0,0,0,0,0,0,0,0,0,0,0,0,0,0,0,0,0,0,0,0,0,0,0,0,0,0,0,0,0,0,0,0,0,0,0,0,0,0,0,0,-0.0454,-0.0453,0,-0.0382,-0.0381,-0.0381,-0.0322,-0.0321,-0.0321,-0.032,-0.0187,-0.0184,-0.0181,0,0,0,0,0,0,0,0,0,0,0,0,0,-0.0484,-0.0484,-0.0454,-0.0453,-0.0452,-0.0383,-0.0381,-0.038,-0.0322,-0.0321,-0.0321,-0.032,-0.0188,-0.0184,-0.018,0,0,0,0,0,0,0,0,0,0,0,0,0,-0.0446,-0.0484,-0.0454,-0.0416,-0.0412,-0.0383,-0.0381,-0.038,-0.0322,-0.0321,-0.0321,-0.032,-0.0189,-0.0184,-0.018,-0.0166,0,0,-0.0166,-0.0164,0,0,0,0,0,0,0,0,-0.0449,-0.0445,-0.0422,-0.0418,-0.0414,-0.0361,-0.0343,-0.0306,-0.0322,-0.0355,-0.032,-0.0319,-0.0241,-0.0232,-0.0219,-0.016,-0.0154,-0.0165,-0.0163,-0.0161,-0.0159,0,0,0,0,0,0,0,-0.0451,-0.0448,-0.0424,-0.0421,-0.0416,-0.0383,-0.0377,-0.0336,-0.0301,-0.0352,-0.0348,-0.0342,-0.0238,-0.0224,-0.0215,-0.0152,-0.0165,-0.0161,-0.0158,-0.0157,-0.0056,-0.0056,0,0,0,0,0,0,-0.0467,-0.0451,-0.0427,-0.0422,-0.0431,-0.0383,-0.0377,-0.0378,-0.0302,-0.0291,-0.0343,-0.034,-0.0232,-0.0221,-0.021,-0.0173,-0.0161,-0.0156,-0.0154,-0.0056,-0.0056,-0.0056,0,0,0,0,0,0,-0.0468,-0.0466,-0.0429,-0.0435,-0.0428,-0.0384,-0.0385,-0.0377,-0.0362,-0.0296,-0.0283,-0.0337,-0.0231,-0.0217,-0.0174,-0.0168,-0.0154,-0.015,-0.0055,-0.0056,-0.0056,-0.0109,0,0,0,0,0,0,-0.0469,-0.0467,-0.0474,-0.0437,-0.0429,-0.0421,-0.0386,-0.0376,-0.036,-0.0356,-0.0287,-0.0274,-0.0229,-0.0181,-0.017,-0.0161,-0.0146,-0.0055,-0.0055,-0.0056,-0.0107,-0.0111,-0.0114,0,0,0,0,0,-0.047,-0.0491,-0.0475,-0.0472,-0.044,-0.0421,-0.0414,-0.0379,-0.0361,-0.0361,-0.0311,-0.0276,-0.0174,-0.0178,-0.0164,-0.0154,-0.0055,-0.0055,-0.0056,-0.0105,-0.011,-0.0114,0,0,0,0,0,0,-0.0507,-0.0485,-0.0468,-0.048,-0.0454,-0.0412,-0.0411,-0.0386,-0.0348,-0.0342,-0.0277,-0.026,-0.0222,-0.0184,-0.019,-0.0127,-0.0109,-0.0106,-0.0152,-0.0155,-0.0159,-0.0169,-0.0142,0,0,0,0,0,-0.052,-0.0528,-0.0495,-0.0503,-0.0495,-0.0454,-0.0442,-0.0418,-0.038,-0.0363,-0.0314,-0.0261,-0.0213,-0.0182,-0.0141,-0.0105,-0.0059,-0.009,-0.0093,-0.0097,-0.0096,-0.0023,-0.0019,-0.0056,-0.0056,-0.0056,0,0,-0.0537,-0.0524,-0.0529,-0.0511,-0.0488,-0.0485,-0.0445,-0.0435,-0.0422,-0.0354,-0.0324,-0.0275,-0.0209,-0.0169,-0.0147,-0.0134,-0.0064,-0.0097,-0.01,-0.0097,-0.0022,-0.0019,-0.0015,-0.0057,-0.0057,-0.0057,0,0,-0.0577,-0.0563,-0.0584,-0.0566,-0.0542,-0.0514,-0.0514,-0.0476,-0.045,-0.0418,-0.0363,-0.0308,-0.0246,-0.0187,-0.015,-0.0148,-0.0091,-0.014,-0.0156,-0.0085,-0.0081,-0.0077,-0.0024,-0.0015,-0.0135,-0.0135,-0.0135,0,-0.0598,-0.0616,-0.0586,-0.0595,-0.0584,-0.0532,-0.0543,-0.051,-0.046,-0.0433,-0.0419,-0.0305,-0.025,-0.0178,-0.0177,-0.0153,-0.0114,-0.0145,-0.0089,-0.0084,-0.0079,-0.0025,-0.0014,-0.0138,-0.0137,-0.0137,-0.0137,0,-0.0647,-0.0659,-0.0669,-0.066,-0.0644,-0.0647,-0.0598,-0.0574,-0.0536,-0.0491,-0.0424,-0.0345,-0.0273,-0.0247,-0.0209,-0.0144,-0.0129,-0.0108,-0.0079,-0.0079,-0.0022,-0.001,-0.0141,-0.014,-0.014,-0.0139,0,0,-0.07,-0.0706,-0.071,-0.0717,-0.0679,-0.0674,-0.0647,-0.0604,-0.0579,-0.0515,-0.047,-0.0377,-0.0327,-0.0282,-0.0219,-0.0153,-0.0084,-0.0122,-0.0117,-0.0072,0.006,0.0083,0.0099,-0.0054,-0.0052,-0.005,0.0082,0,-0.0748,-0.0791,-0.0771,-0.0795,-0.0809,-0.0748,-0.0724,-0.067,-0.0612,-0.0554,-0.0451,-0.0388,-0.0341,-0.0302,-0.023,-0.0117,-0.0053,-0.0122,0.0055,0.006,0.0079,0.0114,0.0081,0.0197,0.0094,0.0097,0.0098,0,-0.0803,-0.0822,-0.0866,-0.0859,-0.0857,-0.0855,-0.08,-0.0771,-0.0665,-0.0618,-0.0529,-0.0446,-0.033,-0.0299,-0.0107,-0.0156,-0.0058,0.0027,0.0034,0.0085,0.0107,0.0183,0.0224,0.0119,0.0118,0.0116,0.0115,0,-0.086,-0.0887,-0.0926,-0.0925,-0.0905,-0.0901,-0.0876,-0.079,-0.0756,-0.0652,-0.0613,-0.0468,-0.0385,-0.0247,-0.0072,-0.0086,0.0135,0.0142,0.0255,0.0257,0.0279,0.028,0.0273,0.0273,0.0272,0.0272,0.0272,0,-0.092,-0.095,-0.0961,-0.0981,-0.1008,-0.096,-0.0955,-0.0907,-0.0821,-0.077,-0.0653,-0.0574,-0.0367,-0.0213,-0.0075,0.0133,0.0139,0.0264,0.0302,0.0258,0.0256,0.0227,0.022,0.0277,0.0276,0.0275,0.0274,0,-0.098,-0.099,-0.1035,-0.1039,-0.1041,-0.1057,-0.1024,-0.1007,-0.0923,-0.0853,-0.0819,-0.0631,-0.0422,-0.0222,0.003,0.014,0.0327,0.0395,0.0321,0.0348,0.0398,0.0386,0.0536,0.0538,0.054,0.0542,0.0543,0,-0.1017,-0.1048,-0.109,-0.1119,-0.1128,-0.114,-0.1138,-0.1069,-0.1037,-0.0878,-0.0842,-0.0625,-0.0454,-0.0092,0.015,0.0405,0.0398,0.0504,0.0478,0.0408,0.043,0.0415,0.0402,0.0485,0.0485,0.0486,0.0486,0,-0.1074,-0.1091,-0.1128,-0.1194,-0.1221,-0.1244,-0.123,-0.1215,-0.1105,-0.1021,-0.0849,-0.0695,-0.0337,-0.0035,0.0281,0.0414,0.0458,0.0524,0.0501,0.0414,0.0368,0.0386,0.0373,0.0491,0.0491,0.049,0.049,0.049,-0.1106,-0.1153,-0.1204,-0.1261,-0.1298,-0.132,-0.1314,-0.1262,-0.1188,-0.1006,-0.0859,-0.0588,-0.0315,0.0163,0.0372,0.0559,0.055,0.0589,0.0584,0.0579,0.054,0.0499,0.0639,0.0639,0.064,0.064,0.064,0,-0.1142,-0.1197,-0.1261,-0.1326,-0.1367,-0.1372,-0.135,-0.1294,-0.1185,-0.0984,-0.0781,-0.0439,-0.0112,0.0165,0.0474,0.0644,0.0614,0.0657,0.0588,0.0581,0.0576,0.0534,0.0634,0.0635,0.0635,0.0636,0,0,-0.1163,-0.1238,-0.1277,-0.1359,-0.1399,-0.141,-0.1386,-0.1269,-0.111,-0.0881,-0.0659,-0.0395,-0.0071,0.0149,0.0356,0.0513,0.0496,0.0515,0.0499,0.0385,0.0378,0.0515,0.0441,0,0,0,0,0]}],[{"header":{"parameterUnit":"m.s-1","parameterCategory":2,"la1":30.2991,"la2":30.254,"lo1":-89.0895,"lo2":-89.0444,"dy":0.0017,"dx":0.0017,"nx":28,"ny":28,"refTime":"2024-02-08T09:00:00:Z","depth":"4","parameterNumber":2,"parameterNumberName":"U-component_of_CURRENTS"},"data":[0,0,0,0,0,0,0,0,0,0,0,0,0,0,0,0,0,0,0,0,0,0,0,0,0,0,0,0,0,0,0,0,0,0,0,0,0,0,0,0,0,0,0,0,0,0,0,0,0,0,0,0,0,0,0,0,0,0,-0.1773,-0.1774,0,-0.1837,-0.1838,-0.1838,-0.1883,-0.1883,-0.1884,-0.1884,-0.195,-0.1951,-0.1953,0,0,0,0,0,0,0,0,0,0,0,0,0,-0.169,-0.1691,-0.1773,-0.1774,-0.1775,-0.1837,-0.1838,-0.1839,-0.1883,-0.1883,-0.1884,-0.1884,-0.195,-0.1951,-0.1953,0,0,0,0,0,0,0,0,0,0,0,0,0,-0.1736,-0.1691,-0.1773,-0.1806,-0.1809,-0.1837,-0.1838,-0.1839,-0.1883,-0.1883,-0.1884,-0.1885,-0.1949,-0.1951,-0.1953,-0.1951,0,0,-0.1959,-0.196,0,0,0,0,0,0,0,0,-0.1733,-0.1739,-0.18,-0.1804,-0.1808,-0.1854,-0.1833,-0.1877,-0.1882,-0.1853,-0.1884,-0.1885,-0.1918,-0.1923,-0.1931,-0.1954,-0.1957,-0.1959,-0.196,-0.1961,-0.1962,0,0,0,0,0,0,0,-0.173,-0.1736,-0.1797,-0.1801,-0.1806,-0.1817,-0.1824,-0.1841,-0.188,-0.1856,-0.186,-0.1869,-0.1921,-0.1929,-0.1933,-0.1958,-0.1959,-0.1961,-0.1962,-0.1963,-0.2053,-0.2054,0,0,0,0,0,0,-0.1724,-0.1733,-0.1795,-0.1799,-0.1773,-0.1818,-0.1826,-0.1837,-0.188,-0.1888,-0.1868,-0.1871,-0.1926,-0.1931,-0.1936,-0.2011,-0.1961,-0.1963,-0.1964,-0.2052,-0.2053,-0.2054,0,0,0,0,0,0,-0.1722,-0.1729,-0.1793,-0.1769,-0.1778,-0.1819,-0.1831,-0.1838,-0.1879,-0.1889,-0.1897,-0.1906,-0.1926,-0.1933,-0.1977,-0.2011,-0.1964,-0.1966,-0.205,-0.2052,-0.2054,-0.2114,0,0,0,0,0,0,-0.172,-0.1728,-0.1749,-0.1768,-0.1779,-0.183,-0.1831,-0.1839,-0.1883,-0.1887,-0.1924,-0.1929,-0.1927,-0.1974,-0.1979,-0.2013,-0.1967,-0.2049,-0.2051,-0.2053,-0.2111,-0.2118,-0.2124,0,0,0,0,0,-0.1716,-0.1737,-0.1749,-0.1758,-0.1801,-0.1831,-0.1839,-0.1868,-0.1884,-0.1908,-0.1932,-0.1929,-0.1992,-0.1977,-0.1983,-0.2018,-0.2048,-0.205,-0.2053,-0.2108,-0.2116,-0.2124,0,0,0,0,0,0,-0.1711,-0.1744,-0.1758,-0.1788,-0.1819,-0.184,-0.1868,-0.1887,-0.1926,-0.1939,-0.1947,-0.1954,-0.2004,-0.2001,-0.1985,-0.2049,-0.2019,-0.2023,-0.2058,-0.2067,-0.2073,-0.2055,-0.1969,0,0,0,0,0,-0.1719,-0.1745,-0.1774,-0.1802,-0.1819,-0.185,-0.1872,-0.1895,-0.1924,-0.1943,-0.1969,-0.1993,-0.2014,-0.2034,-0.2051,-0.2089,-0.206,-0.2114,-0.212,-0.2126,-0.2115,-0.2108,-0.2113,-0.2063,-0.2063,-0.2063,0,0,-0.1725,-0.1747,-0.1764,-0.1804,-0.1829,-0.186,-0.1866,-0.191,-0.1942,-0.1943,-0.2004,-0.2022,-0.2029,-0.2071,-0.2094,-0.2078,-0.2125,-0.2129,-0.2134,-0.2119,-0.2111,-0.2116,-0.212,-0.2065,-0.2065,-0.2065,0,0,-0.1738,-0.1771,-0.1795,-0.1824,-0.1871,-0.1889,-0.191,-0.1954,-0.1984,-0.2036,-0.2043,-0.2076,-0.2122,-0.2126,-0.2132,-0.2184,-0.216,-0.2205,-0.2227,-0.2223,-0.2226,-0.2229,-0.2194,-0.2193,-0.2209,-0.2209,-0.2209,0,-0.1748,-0.1777,-0.1807,-0.1837,-0.1865,-0.1906,-0.1938,-0.1972,-0.2028,-0.205,-0.2066,-0.2126,-0.2139,-0.2167,-0.219,-0.2198,-0.2185,-0.2199,-0.223,-0.2232,-0.2234,-0.2197,-0.2195,-0.2212,-0.2212,-0.2211,-0.2211,0,-0.1765,-0.1805,-0.1823,-0.1872,-0.1908,-0.1945,-0.199,-0.2038,-0.2081,-0.2107,-0.2164,-0.2181,-0.221,-0.2229,-0.2229,-0.2256,-0.2239,-0.2239,-0.2207,-0.2242,-0.2202,-0.2199,-0.2217,-0.2216,-0.2215,-0.2214,0,0,-0.1737,-0.182,-0.1828,-0.186,-0.1932,-0.1958,-0.202,-0.2072,-0.211,-0.2168,-0.2203,-0.2247,-0.2262,-0.2268,-0.2278,-0.2278,-0.2283,-0.2274,-0.2272,-0.2233,-0.2258,-0.2112,-0.2094,-0.2302,-0.2302,-0.2302,-0.2222,0,-0.1741,-0.1797,-0.1841,-0.1903,-0.1934,-0.1997,-0.2046,-0.2104,-0.2155,-0.2202,-0.2225,-0.2267,-0.2276,-0.23,-0.2304,-0.2292,-0.228,-0.2303,-0.2233,-0.223,-0.2092,-0.2087,-0.2302,-0.222,-0.2219,-0.2218,-0.2218,0,-0.1732,-0.1772,-0.1832,-0.1917,-0.1938,-0.1987,-0.2069,-0.2118,-0.2187,-0.2227,-0.2269,-0.2294,-0.2312,-0.2315,-0.2295,-0.2317,-0.229,-0.2271,-0.2267,-0.2103,-0.2078,-0.2179,-0.2212,-0.2212,-0.2213,-0.2213,-0.2214,0,-0.1673,-0.1763,-0.1812,-0.1842,-0.1943,-0.199,-0.2046,-0.2128,-0.2166,-0.2242,-0.2273,-0.2305,-0.2322,-0.2304,-0.2278,-0.2297,-0.2234,-0.2248,-0.2081,-0.207,-0.2201,-0.2198,-0.2216,-0.2217,-0.2217,-0.2217,-0.2217,0,-0.1637,-0.1678,-0.1797,-0.1819,-0.188,-0.1966,-0.2034,-0.2094,-0.2171,-0.2194,-0.2281,-0.2285,-0.2327,-0.2304,-0.2272,-0.2149,-0.2225,-0.2062,-0.2035,-0.2228,-0.223,-0.2197,-0.2196,-0.2214,-0.2215,-0.2215,-0.2216,0,-0.1553,-0.1635,-0.1696,-0.1814,-0.1854,-0.1897,-0.2016,-0.2047,-0.2147,-0.2176,-0.2201,-0.2271,-0.2232,-0.2234,-0.219,-0.2117,-0.2031,-0.1971,-0.2152,-0.2141,-0.1871,-0.1875,-0.1762,-0.1757,-0.1752,-0.1747,-0.1744,0,-0.1509,-0.1535,-0.1668,-0.1704,-0.1762,-0.1847,-0.189,-0.2011,-0.2037,-0.2134,-0.2117,-0.2141,-0.216,-0.1964,-0.1998,-0.1897,-0.1882,-0.183,-0.1866,-0.1836,-0.1823,-0.1834,-0.1844,-0.1736,-0.1735,-0.1733,-0.1732,0,-0.1413,-0.148,-0.1525,-0.16,-0.1663,-0.1719,-0.1793,-0.1802,-0.1914,-0.2023,-0.1969,-0.1938,-0.1887,-0.1843,-0.178,-0.1719,-0.1861,-0.1777,-0.1788,-0.1821,-0.1803,-0.1797,-0.1813,-0.1715,-0.1717,-0.1719,-0.172,0,-0.1336,-0.1347,-0.1419,-0.1467,-0.1543,-0.1557,-0.1625,-0.1642,-0.1684,-0.18,-0.1768,-0.1791,-0.1854,-0.1747,-0.1685,-0.1613,-0.1592,-0.1547,-0.1569,-0.1589,-0.157,-0.1524,-0.1303,0,0,0,0,0,-0.1246,-0.1241,-0.1277,-0.1322,-0.1389,-0.1427,-0.1533,-0.1603,-0.1721,-0.1624,-0.1693,-0.1633,-0.1554,-0.1574,-0.1458,-0.1605,-0.1602,-0.1465,-0.1564,-0.1618,-0.1638,-0.1634,0,0,0,0,0,0,-0.1184,-0.121,-0.1223,-0.1183,-0.1182,-0.1232,-0.1294,-0.1379,-0.1346,-0.1469,-0.1429,-0.1516,-0.1459,-0.1569,-0.1412,-0.1415,-0.1441,-0.1489,-0.1484,-0.1607,-0.1625,-0.1641,-0.1643,0,0,0,0,0]},{"header":{"parameterUnit":"m.s-1","parameterCategory":2,"la1":30.2991,"la2":30.254,"lo1":-89.0895,"lo2":-89.0444,"dy":0.0017,"dx":0.0017,"nx":28,"ny":28,"refTime":"2024-02-08T09:00:00:Z","depth":"4","parameterNumber":3,"parameterNumberName":"V-component_of_CURRENTS"},"data":[0,0,0,0,0,0,0,0,0,0,0,0,0,0,0,0,0,0,0,0,0,0,0,0,0,0,0,0,0,0,0,0,0,0,0,0,0,0,0,0,0,0,0,0,0,0,0,0,0,0,0,0,0,0,0,0,0,0,-0.0357,-0.0356,0,-0.0323,-0.0322,-0.0322,-0.0291,-0.029,-0.029,-0.029,-0.0209,-0.0207,-0.0205,0,0,0,0,0,0,0,0,0,0,0,0,0,-0.0357,-0.0358,-0.0357,-0.0356,-0.0356,-0.0323,-0.0322,-0.0322,-0.0291,-0.029,-0.029,-0.029,-0.0209,-0.0207,-0.0205,0,0,0,0,0,0,0,0,0,0,0,0,0,-0.0343,-0.0358,-0.0357,-0.0337,-0.0335,-0.0323,-0.0322,-0.0322,-0.0291,-0.029,-0.029,-0.029,-0.021,-0.0207,-0.0204,-0.0196,0,0,-0.0196,-0.0195,0,0,0,0,0,0,0,0,-0.0344,-0.0343,-0.034,-0.0338,-0.0336,-0.0311,-0.0293,-0.0278,-0.0291,-0.0307,-0.029,-0.0289,-0.024,-0.0234,-0.0228,-0.0192,-0.0189,-0.0196,-0.0194,-0.0193,-0.0192,0,0,0,0,0,0,0,-0.0345,-0.0344,-0.0342,-0.034,-0.0338,-0.0318,-0.0315,-0.029,-0.0274,-0.0305,-0.0303,-0.0301,-0.0238,-0.0231,-0.0226,-0.0187,-0.0196,-0.0193,-0.0191,-0.019,-0.0134,-0.0134,0,0,0,0,0,0,-0.0354,-0.0345,-0.0343,-0.0341,-0.034,-0.0318,-0.0315,-0.0319,-0.0276,-0.0269,-0.0301,-0.03,-0.0236,-0.0229,-0.0223,-0.0211,-0.0193,-0.019,-0.0188,-0.0134,-0.0134,-0.0134,0,0,0,0,0,0,-0.0354,-0.0354,-0.0345,-0.0343,-0.034,-0.0319,-0.0323,-0.0319,-0.0316,-0.0273,-0.0266,-0.0303,-0.0235,-0.0227,-0.0205,-0.0207,-0.0189,-0.0186,-0.0133,-0.0134,-0.0134,-0.0186,0,0,0,0,0,0,-0.0354,-0.0354,-0.0364,-0.0344,-0.0341,-0.0347,-0.0323,-0.0318,-0.0315,-0.0313,-0.0273,-0.0264,-0.0234,-0.021,-0.0202,-0.0203,-0.0184,-0.0133,-0.0134,-0.0134,-0.0184,-0.0188,-0.0191,0,0,0,0,0,-0.0354,-0.0373,-0.0365,-0.0365,-0.0354,-0.0348,-0.0345,-0.0326,-0.0316,-0.0321,-0.0291,-0.0266,-0.0206,-0.0208,-0.0199,-0.0199,-0.0133,-0.0133,-0.0134,-0.0182,-0.0187,-0.0191,0,0,0,0,0,0,-0.0378,-0.0371,-0.0362,-0.0377,-0.0366,-0.0343,-0.0349,-0.0334,-0.0315,-0.0313,-0.0269,-0.026,-0.0242,-0.0215,-0.0217,-0.0184,-0.0165,-0.0164,-0.0205,-0.0209,-0.0212,-0.0215,-0.0182,0,0,0,0,0,-0.0389,-0.04,-0.0384,-0.0396,-0.0395,-0.0372,-0.0369,-0.0357,-0.0336,-0.0328,-0.0299,-0.0266,-0.0237,-0.0219,-0.0194,-0.0176,-0.0135,-0.0169,-0.0173,-0.0176,-0.0172,-0.0114,-0.0112,-0.0136,-0.0136,-0.0136,0,0,-0.0402,-0.0398,-0.0406,-0.0402,-0.0393,-0.0398,-0.037,-0.0371,-0.0371,-0.0321,-0.0315,-0.0283,-0.0237,-0.0218,-0.0207,-0.0194,-0.015,-0.0177,-0.018,-0.0174,-0.0114,-0.0112,-0.011,-0.0136,-0.0136,-0.0136,0,0,-0.0435,-0.0432,-0.0453,-0.0447,-0.044,-0.0424,-0.0428,-0.041,-0.0398,-0.0387,-0.0349,-0.0315,-0.0281,-0.0241,-0.0216,-0.0224,-0.0177,-0.0221,-0.0235,-0.0179,-0.0176,-0.0174,-0.0127,-0.012,-0.0217,-0.0217,-0.0217,0,-0.0452,-0.0473,-0.0457,-0.0472,-0.0471,-0.044,-0.0457,-0.0441,-0.0417,-0.0402,-0.0394,-0.0324,-0.0288,-0.0243,-0.0245,-0.0231,-0.0197,-0.0223,-0.0183,-0.018,-0.0176,-0.0129,-0.012,-0.022,-0.022,-0.0219,-0.0219,0,-0.0494,-0.0513,-0.0524,-0.0531,-0.0527,-0.0538,-0.0513,-0.0506,-0.0486,-0.0459,-0.0421,-0.0367,-0.0321,-0.0304,-0.0276,-0.0231,-0.0216,-0.02,-0.0173,-0.0177,-0.0127,-0.0117,-0.0224,-0.0223,-0.0222,-0.0221,0,0,-0.0527,-0.0552,-0.0558,-0.0571,-0.056,-0.0563,-0.0559,-0.0539,-0.053,-0.0493,-0.0468,-0.0409,-0.0371,-0.0341,-0.0295,-0.024,-0.0186,-0.0214,-0.0209,-0.0169,-0.0069,-0.0077,-0.0066,-0.0165,-0.0163,-0.0162,-0.0048,0,-0.0565,-0.0612,-0.0608,-0.0644,-0.0661,-0.0631,-0.0626,-0.06,-0.0567,-0.0535,-0.0461,-0.0422,-0.0387,-0.0361,-0.0304,-0.0214,-0.016,-0.0219,-0.0069,-0.0065,-0.0073,-0.0055,-0.0157,-0.004,-0.0038,-0.0036,-0.0035,0,-0.0607,-0.063,-0.068,-0.0696,-0.07,-0.0714,-0.0694,-0.0685,-0.0622,-0.0594,-0.0534,-0.0474,-0.0387,-0.036,-0.0207,-0.0248,-0.0167,-0.0095,-0.0089,-0.0069,-0.0054,-0.0032,-0.0015,-0.0017,-0.0018,-0.002,-0.0021,0,-0.0636,-0.068,-0.0724,-0.0731,-0.0741,-0.0754,-0.075,-0.0704,-0.0689,-0.0625,-0.0599,-0.0494,-0.043,-0.0319,-0.0178,-0.0189,-0.0007,-0.0002,0.0069,0.007,0.0065,0.0061,0.0106,0.0106,0.0106,0.0105,0.0105,0,-0.0671,-0.0708,-0.0749,-0.0772,-0.0813,-0.0796,-0.0814,-0.0792,-0.0744,-0.0712,-0.0634,-0.0575,-0.0415,-0.0292,-0.0179,-0.0023,-0.0006,0.0075,0.0103,0.0039,0.0031,0.0072,0.0067,0.011,0.0109,0.0108,0.0107,0,-0.0696,-0.0727,-0.0781,-0.0817,-0.0834,-0.086,-0.087,-0.0867,-0.0821,-0.0776,-0.0753,-0.0616,-0.0454,-0.0298,-0.0093,-0.002,0.0127,0.0177,0.0096,0.0117,0.0165,0.0155,0.0266,0.0267,0.0267,0.0268,0.0268,0,-0.0712,-0.0745,-0.0822,-0.086,-0.0886,-0.0922,-0.0938,-0.0912,-0.0895,-0.0791,-0.0762,-0.0601,-0.0497,-0.0215,-0.0063,0.0149,0.0174,0.0236,0.0201,0.0167,0.0184,0.0173,0.0163,0.0269,0.027,0.027,0.027,0,-0.0732,-0.077,-0.0814,-0.0896,-0.0944,-0.0983,-0.0999,-0.0986,-0.0925,-0.0894,-0.0739,-0.0583,-0.0399,-0.0195,-0.0029,0.0119,0.0186,0.0243,0.0243,0.021,0.0173,0.0186,0.0175,0.0272,0.0272,0.0272,0.0272,0,-0.0742,-0.0783,-0.085,-0.0914,-0.0981,-0.1011,-0.1021,-0.0974,-0.0943,-0.0817,-0.076,-0.056,-0.0432,-0.0208,-0.0056,0.0087,0.0116,0.0143,0.0148,0.0148,0.007,0.0002,0.0082,0,0,0,0,0,-0.0739,-0.0788,-0.0857,-0.0928,-0.0993,-0.1026,-0.1041,-0.103,-0.0972,-0.0863,-0.0803,-0.0624,-0.0363,-0.0249,-0.0104,-0.0069,0.0116,0.01,0.0143,0.0285,0.0282,0.0209,0,0,0,0,0,0,-0.0741,-0.0811,-0.0852,-0.0921,-0.0965,-0.1024,-0.1032,-0.0996,-0.0923,-0.0844,-0.0701,-0.0609,-0.0359,-0.044,-0.0104,-0.0061,-0.002,0.0226,0.0228,0.0286,0.0284,0.0282,0.0205,0,0,0,0,0]}]]